Showing default

OPS 6577 (VELA 5), 1458

Orbit data source: Space-Track

OPS 6577 (VELA 5), 1458 is a payload satellite owned by USAF SSD (US) in HEO that was launched on Tue, 20 Jul 1965 UTC via an ATLAS AGENA D launch vehicle from the Air Force Eastern Test Range (AFETR). Payload-class satellites include a variety of spacecraft equipped with specific instruments for various scientific and technological missions. These include communications satellites like Starlink; space stations such as the ISS; scientific satellites like the Hubble; Earth observation satellites from companies like Planet Labs, Umbra, and HawkEye 360; GPS; miniature CubeSats for education and research; and military/defense satellites.

Loading next visibility...
Identifier
1458, 1965-058A
Orbit
HEO
Country
Flag of USUS
Related business
Manufacturer
TRW
Mission
Spacecraft
Bus & Motor
VELA, BE-3A
Mass
~234 kg wet, 132 kg dry
Launch date (UTC)
1965-07-20 (61 years ago)
Launch vehicle
ATLAS AGENA D
Launch site
Air Force Eastern Test Range (AFETR)
Object type
Payload
Rocket body
Debris
Shape & HBR
Unknown
Radar Cross Section
RCS unknown

Expand to show TLE details & history
Last TLE update: 3 months ago

TLE from 3 months ago
0 OPS 6577 (VELA 5)
1  1458U 65058A   26034.53841931 -.00001540  00000-0  00000+0 0  9991
2  1458  27.3672  17.4526 5057032 313.1022 357.7419  0.21365054 11774
Epoch: 2026-02-03T12:55Z
TLE epoch observation values (Epoch: 2026-02-03T12:55:19.428Z)
Latitude
-21.2784°
Longitude
1.02358°
Altitude
50,895.977 km
Speed
3.248 km/s
True Right ascension
21h 54m 17s
True Declination
-21° 15' 50"
Sunlit
Object was in daylight at epoch
Visualization orbit readout
Latitude
Unknown
Longitude
Unknown
Altitude
Unknown
Speed
Unknown
Apparent Right ascension
Unknown
Apparent Declination
Unknown
Sunlit
N/A
Visualization observer readout
Local Sidereal Time
05:37:25
Azimuth
Unknown
Elevation
Unknown
Doppler factor
Unknown
Orbital elements
Apogee altitude
171,589.189 km
Perigee altitude
52,045.515 km
Semi-major axis
118,195.489 km
Eccentricity
0.5057
Inclination
27.3672°
RAAN
17.4526°
Arg. of periapsis
313.1022°
True anomaly
352.04403°
Mean anomaly
357.7419°
Eccentric anomaly
355.43663°
Mean motion
0.05341 °/min
Orbital period
6,740.01 mins
BSTAR
0
Loading maneuver chart data...
Computing Atmospheric mass density...
Loading historical data...
Loading historical data...
Loading historical data...
Loading historical data...
Loading historical data...
Loading historical data...
Loading historical data...
Other satellites on launch #58 in the year 1965 (1965-07-20 UTC)

Documentation

Showing up to 5 results
|